ECTES EGPO-BIEG

Flight info

Callsign ECTES
Flight time N/A
Altitude 18000
Route STN DCT MATIK/M037F180 DCT ES
Aircraft B58T/L-SDFGRY/C

Departure

Time 2026-05-06 19:22
Airport Stornoway Airport (EGPO)

Arrival

Time N/A
Airport Egilsstaðir Airport (BIEG)
Time Latitude Longitude Altitude Speed Heading
2026-05-06 19:09 58.21432 -6.32167 15 ft 0 kts 133°
2026-05-06 19:11 58.21431 -6.32156 -19 ft 3 kts 71°
2026-05-06 19:11 58.21454 -6.32151 15 ft 4 kts 11°
2026-05-06 19:11 58.21473 -6.32089 15 ft 8 kts 83°
2026-05-06 19:12 58.21478 -6.32022 15 ft 9 kts 72°
2026-05-06 19:12 58.21521 -6.31935 15 ft 11 kts 22°
2026-05-06 19:12 58.21573 -6.31902 15 ft 5 kts 15°
2026-05-06 19:12 58.21615 -6.31913 15 ft 8 kts 321°
2026-05-06 19:13 58.21653 -6.31980 15 ft 8 kts 319°
2026-05-06 19:13 58.21705 -6.32063 15 ft 11 kts 317°
2026-05-06 19:13 58.21771 -6.32177 15 ft 14 kts 318°
2026-05-06 19:13 58.21852 -6.32311 15 ft 16 kts 317°
2026-05-06 19:14 58.21941 -6.32466 15 ft 18 kts 317°
2026-05-06 19:14 58.22032 -6.32619 15 ft 15 kts 319°
2026-05-06 19:14 58.22116 -6.32758 11 ft 14 kts 319°
2026-05-06 19:14 58.22161 -6.32883 13 ft 11 kts 289°
2026-05-06 19:15 58.22171 -6.32951 15 ft 0 kts 284°
2026-05-06 19:20 58.22176 -6.32993 16 ft 9 kts 286°
2026-05-06 19:20 58.22194 -6.33111 18 ft 11 kts 286°
2026-05-06 19:20 58.22186 -6.33222 18 ft 6 kts 198°
2026-05-06 19:21 58.22180 -6.33223 18 ft 0 kts 176°
2026-05-06 19:21 58.21914 -6.33172 20 ft 79 kts 174°
2026-05-06 19:21 58.21198 -6.33017 135 ft 117 kts 172°
2026-05-06 19:21 58.20388 -6.32776 577 ft 117 kts 171°
2026-05-06 19:22 58.19578 -6.32523 916 ft 121 kts 171°
2026-05-06 19:22 58.18739 -6.32457 1234 ft 123 kts 197°
2026-05-06 19:22 58.18062 -6.33446 1460 ft 131 kts 231°
2026-05-06 19:22 58.17671 -6.35022 1695 ft 132 kts 273°
2026-05-06 19:23 58.18164 -6.36367 2006 ft 134 kts 334°
2026-05-06 19:23 58.19085 -6.36796 2224 ft 141 kts
2026-05-06 19:23 58.20076 -6.36816 2476 ft 144 kts 346°
2026-05-06 19:23 58.21043 -6.37314 2742 ft 145 kts 343°
2026-05-06 19:24 58.21994 -6.37824 3087 ft 139 kts 343°
2026-05-06 19:24 58.22916 -6.38327 3410 ft 137 kts 343°
2026-05-06 19:24 58.23832 -6.38832 3716 ft 137 kts 342°
2026-05-06 19:24 58.24744 -6.39339 4011 ft 136 kts 342°
2026-05-06 19:25 58.25656 -6.39853 4308 ft 137 kts 342°
2026-05-06 19:25 58.26556 -6.40357 4598 ft 136 kts 342°
2026-05-06 19:25 58.27466 -6.40866 4887 ft 137 kts 342°
2026-05-06 19:25 58.28377 -6.41377 5175 ft 137 kts 342°
2026-05-06 19:26 58.29291 -6.41887 5459 ft 136 kts 342°
2026-05-06 19:26 58.30203 -6.42398 5736 ft 136 kts 342°
2026-05-06 19:26 58.31113 -6.42909 6008 ft 136 kts 342°
2026-05-06 19:26 58.32022 -6.43418 6276 ft 136 kts 342°
2026-05-06 19:27 58.32932 -6.43927 6541 ft 136 kts 342°
2026-05-06 19:27 58.33838 -6.44436 6798 ft 136 kts 342°
2026-05-06 19:27 58.34762 -6.44957 7005 ft 139 kts 342°
2026-05-06 19:27 58.35689 -6.45476 7256 ft 138 kts 342°
2026-05-06 19:28 58.36610 -6.45992 7505 ft 138 kts 342°
2026-05-06 19:28 58.37524 -6.46507 7753 ft 137 kts 342°
2026-05-06 19:28 58.38442 -6.47023 8000 ft 136 kts 342°
2026-05-06 19:28 58.39352 -6.47535 8246 ft 136 kts 342°
2026-05-06 19:29 58.40282 -6.48077 8904 ft 145 kts 337°
2026-05-06 19:29 58.41265 -6.48620 9195 ft 153 kts 338°
2026-05-06 19:29 58.42308 -6.49200 9046 ft 158 kts 341°
2026-05-06 19:29 58.43383 -6.49799 9788 ft 163 kts 337°
2026-05-06 19:30 58.43494 -6.49863 9816 ft 163 kts 337°
2026-05-06 19:30 58.44609 -6.50502 10076 ft 168 kts 338°
2026-05-06 19:30 58.45742 -6.51141 10332 ft 171 kts 337°
2026-05-06 19:30 58.46891 -6.51788 10590 ft 173 kts 338°
2026-05-06 19:31 58.48035 -6.52432 10953 ft 168 kts 338°
2026-05-06 19:31 58.49148 -6.53059 11331 ft 165 kts 338°
2026-05-06 19:31 58.51321 -6.54292 12098 ft 161 kts 337°
2026-05-06 19:32 58.52177 -6.54776 12414 ft 160 kts 336°
2026-05-06 19:32 58.52384 -6.54894 12492 ft 160 kts 337°
2026-05-06 19:32 58.53452 -6.55498 12897 ft 160 kts 337°
2026-05-06 19:32 58.54514 -6.56105 13308 ft 159 kts 336°
2026-05-06 19:33 58.55573 -6.56710 13710 ft 158 kts 336°
2026-05-06 19:33 58.56625 -6.57309 14077 ft 157 kts 336°
2026-05-06 19:33 58.57671 -6.57903 14442 ft 155 kts 336°
2026-05-06 19:33 58.58691 -6.58484 14803 ft 154 kts 335°
2026-05-06 19:34 58.59714 -6.59067 15175 ft 153 kts 335°
2026-05-06 19:34 58.60728 -6.59644 15549 ft 151 kts 334°
2026-05-06 19:34 58.61733 -6.60217 15932 ft 150 kts 334°
2026-05-06 19:34 58.62730 -6.60787 16318 ft 149 kts 333°
2026-05-06 19:35 58.63723 -6.61354 16710 ft 148 kts 333°
2026-05-06 19:35 58.64703 -6.61913 17112 ft 146 kts 332°
2026-05-06 19:35 58.65359 -6.62288 17373 ft 145 kts 332°
2026-05-06 19:35 58.66651 -6.63033 17824 ft 150 kts 332°
2026-05-06 19:36 58.67340 -6.63426 17998 ft 157 kts 332°
2026-05-06 19:36 58.68441 -6.64071 18013 ft 178 kts 333°
2026-05-06 19:36 58.69676 -6.64776 18012 ft 191 kts 334°
2026-05-06 19:36 58.70974 -6.65509 18009 ft 198 kts 334°
2026-05-06 19:37 58.72317 -6.66278 18006 ft 205 kts 335°
2026-05-06 19:37 58.73706 -6.67076 18009 ft 211 kts 335°
2026-05-06 19:37 58.75129 -6.67891 18007 ft 215 kts 335°
2026-05-06 19:37 58.76576 -6.68721 18003 ft 218 kts 335°
2026-05-06 19:38 58.78040 -6.69562 18003 ft 220 kts 335°
2026-05-06 19:38 58.79513 -6.70411 18002 ft 221 kts 335°
2026-05-06 19:38 58.80993 -6.71263 18003 ft 222 kts 335°
2026-05-06 19:38 58.82476 -6.72121 18006 ft 223 kts 335°
2026-05-06 19:39 58.83965 -6.72982 18004 ft 223 kts 335°
2026-05-06 19:39 58.85453 -6.73841 18010 ft 224 kts 335°
2026-05-06 19:39 58.86954 -6.74712 17999 ft 225 kts 335°
2026-05-06 19:39 58.88455 -6.75581 18003 ft 225 kts 336°
2026-05-06 19:40 58.89965 -6.76456 17997 ft 227 kts 336°
2026-05-06 19:40 58.91473 -6.77322 17997 ft 224 kts 335°
2026-05-06 19:40 58.92952 -6.78200 17996 ft 224 kts 335°
2026-05-06 19:40 58.94457 -6.79079 17998 ft 226 kts 336°
2026-05-06 19:41 58.95961 -6.79946 17999 ft 225 kts 336°
2026-05-06 19:41 58.97463 -6.80812 17996 ft 225 kts 335°
2026-05-06 19:41 58.98962 -6.81690 18002 ft 225 kts 335°
2026-05-06 19:41 59.00465 -6.82571 18001 ft 226 kts 335°
2026-05-06 19:42 59.01970 -6.83448 18001 ft 226 kts 335°
2026-05-06 19:42 59.03474 -6.84327 18000 ft 226 kts 335°
2026-05-06 19:42 59.04978 -6.85207 18000 ft 225 kts 335°
2026-05-06 19:42 59.06482 -6.86088 18003 ft 226 kts 335°
2026-05-06 19:43 59.07985 -6.86971 18005 ft 226 kts 335°
2026-05-06 19:43 59.09488 -6.87853 18000 ft 226 kts 335°
2026-05-06 19:43 59.10988 -6.88731 17999 ft 225 kts 335°
2026-05-06 19:43 59.12493 -6.89618 18006 ft 226 kts 335°
2026-05-06 19:44 59.14001 -6.90507 18002 ft 227 kts 336°
2026-05-06 19:44 59.15515 -6.91398 17998 ft 227 kts 336°
2026-05-06 19:44 59.17009 -6.92273 17999 ft 227 kts 336°
2026-05-06 19:44 59.18519 -6.93168 18001 ft 227 kts 336°
2026-05-06 19:45 59.20030 -6.94062 17989 ft 227 kts 336°
2026-05-06 19:45 59.21542 -6.94953 17988 ft 226 kts 336°
2026-05-06 19:45 59.23048 -6.95846 17986 ft 227 kts 336°
2026-05-06 19:45 59.24557 -6.96737 17988 ft 225 kts 336°
2026-05-06 19:46 59.26051 -6.97628 17983 ft 226 kts 336°
2026-05-06 19:46 59.27544 -6.98513 17979 ft 222 kts 336°
2026-05-06 19:46 59.29036 -6.99394 17982 ft 226 kts 336°
2026-05-06 19:46 59.30536 -7.00294 17990 ft 225 kts 336°
2026-05-06 19:47 59.32034 -7.01191 17985 ft 226 kts 336°
2026-05-06 19:47 59.33548 -7.02080 17988 ft 227 kts 336°
2026-05-06 19:47 59.35052 -7.02965 17986 ft 225 kts 336°
2026-05-06 19:47 59.36546 -7.03872 17985 ft 225 kts 335°
2026-05-06 19:48 59.38047 -7.04774 17984 ft 225 kts 336°
2026-05-06 19:48 59.39516 -7.05649 18173 ft 220 kts 335°
2026-05-06 19:48 59.40962 -7.06508 18415 ft 214 kts 335°
2026-05-06 19:48 59.42375 -7.07354 18678 ft 210 kts 335°
2026-05-06 19:49 59.43764 -7.08188 18908 ft 208 kts 334°
2026-05-06 19:49 59.45141 -7.09016 19156 ft 206 kts 334°
2026-05-06 19:49 59.46504 -7.09836 19403 ft 204 kts 334°
2026-05-06 19:49 59.47860 -7.10652 19649 ft 203 kts 334°
2026-05-06 19:50 59.49209 -7.11461 19900 ft 202 kts 333°
2026-05-06 19:50 59.50532 -7.12258 20147 ft 201 kts 333°
2026-05-06 19:50 59.51867 -7.13063 20403 ft 200 kts 333°
2026-05-06 19:50 59.53200 -7.13864 20664 ft 200 kts 332°
2026-05-06 19:51 59.54522 -7.14658 20924 ft 198 kts 332°
2026-05-06 19:51 59.55833 -7.15457 21185 ft 196 kts 332°
2026-05-06 19:51 59.57131 -7.16238 21445 ft 194 kts 332°
2026-05-06 19:51 59.58412 -7.17009 21707 ft 191 kts 330°
2026-05-06 19:52 59.59674 -7.17774 21970 ft 188 kts 330°
2026-05-06 19:52 59.60917 -7.18531 22236 ft 186 kts 330°
2026-05-06 19:52 59.62152 -7.19282 22508 ft 185 kts 329°
2026-05-06 19:52 59.63380 -7.20027 22781 ft 184 kts 329°
2026-05-06 19:53 59.64599 -7.20764 23060 ft 182 kts 329°
2026-05-06 19:53 59.65802 -7.21496 23338 ft 180 kts 328°
2026-05-06 19:53 59.66990 -7.22218 23598 ft 177 kts 328°
2026-05-06 19:53 59.68158 -7.22927 23826 ft 173 kts 327°
2026-05-06 19:54 59.69307 -7.23630 23988 ft 177 kts 327°
2026-05-06 19:54 59.70512 -7.24383 23996 ft 186 kts 328°
2026-05-06 19:54 59.71775 -7.25155 24003 ft 193 kts 329°
2026-05-06 19:54 59.73070 -7.25937 23999 ft 200 kts 329°
2026-05-06 19:55 59.74416 -7.26756 24003 ft 205 kts 329°
2026-05-06 19:55 59.75792 -7.27597 24004 ft 208 kts 330°
2026-05-06 19:55 59.77188 -7.28448 24000 ft 210 kts 330°
2026-05-06 19:55 59.78594 -7.29306 24000 ft 212 kts 330°
2026-05-06 19:56 59.80016 -7.30179 24000 ft 215 kts 330°
2026-05-06 19:56 59.81440 -7.31051 23998 ft 213 kts 330°
2026-05-06 19:56 59.82862 -7.31923 23998 ft 215 kts 330°
2026-05-06 19:56 59.84300 -7.32809 23998 ft 216 kts 330°
2026-05-06 19:57 59.85736 -7.33693 23999 ft 217 kts 330°
2026-05-06 19:57 59.87176 -7.34582 23994 ft 216 kts 330°
2026-05-06 19:57 59.88622 -7.35466 23997 ft 218 kts 330°
2026-05-06 19:57 59.90062 -7.36357 23996 ft 217 kts 330°
2026-05-06 19:58 59.91499 -7.37251 23996 ft 216 kts 330°
2026-05-06 19:58 59.92942 -7.38137 23996 ft 217 kts 330°
2026-05-06 19:58 59.94387 -7.39031 23998 ft 218 kts 330°
2026-05-06 19:58 59.95822 -7.39923 23997 ft 219 kts 330°
2026-05-06 19:59 59.97286 -7.40834 24005 ft 222 kts 330°
2026-05-06 19:59 59.98769 -7.41756 24004 ft 224 kts 331°
2026-05-06 19:59 60.00261 -7.42674 24002 ft 224 kts 331°
2026-05-06 19:59 60.01750 -7.43598 23997 ft 224 kts 331°
2026-05-06 20:00 60.03236 -7.44517 23994 ft 224 kts 331°
2026-05-06 20:00 60.04724 -7.45450 23995 ft 224 kts 330°
2026-05-06 20:00 60.06211 -7.46381 23994 ft 224 kts 331°
2026-05-06 20:00 60.07705 -7.47309 23993 ft 224 kts 331°
2026-05-06 20:01 60.09195 -7.48239 23996 ft 224 kts 331°
2026-05-06 20:01 60.10684 -7.49170 23996 ft 224 kts 331°
2026-05-06 20:01 60.12172 -7.50102 23997 ft 224 kts 331°
2026-05-06 20:01 60.13659 -7.51033 23997 ft 224 kts 331°
2026-05-06 20:02 60.15149 -7.51967 23994 ft 224 kts 331°
2026-05-06 20:02 60.16638 -7.52901 23994 ft 224 kts 331°
2026-05-06 20:02 60.18125 -7.53835 23994 ft 224 kts 331°
2026-05-06 20:02 60.19614 -7.54771 23999 ft 224 kts 331°
2026-05-06 20:03 60.21100 -7.55701 24003 ft 224 kts 331°
2026-05-06 20:03 60.22592 -7.56646 24004 ft 223 kts 331°
2026-05-06 20:03 60.24075 -7.57580 24004 ft 223 kts 331°
2026-05-06 20:03 60.25551 -7.58505 24001 ft 225 kts 331°
2026-05-06 20:04 60.27042 -7.59452 23998 ft 225 kts 331°
2026-05-06 20:04 60.28542 -7.60405 23998 ft 226 kts 331°
2026-05-06 20:04 60.30046 -7.61355 23993 ft 226 kts 331°
2026-05-06 20:04 60.31552 -7.62309 24003 ft 227 kts 331°
2026-05-06 20:05 60.33061 -7.63267 24006 ft 227 kts 331°
2026-05-06 20:05 60.34569 -7.64223 24006 ft 227 kts 331°
2026-05-06 20:05 60.36077 -7.65180 24005 ft 227 kts 331°
2026-05-06 20:05 60.37588 -7.66142 24005 ft 227 kts 331°
2026-05-06 20:06 60.39100 -7.67104 24005 ft 228 kts 331°
2026-05-06 20:06 60.40612 -7.68067 24006 ft 228 kts 331°
2026-05-06 20:06 60.42127 -7.69034 24011 ft 228 kts 331°
2026-05-06 20:06 60.43640 -7.70000 24011 ft 228 kts 331°
2026-05-06 20:07 60.45133 -7.70953 24007 ft 228 kts 331°
2026-05-06 20:07 60.46643 -7.71919 24005 ft 228 kts 331°
2026-05-06 20:07 60.48155 -7.72890 24006 ft 227 kts 331°
2026-05-06 20:07 60.49664 -7.73860 24005 ft 227 kts 331°
2026-05-06 20:08 60.51174 -7.74824 24009 ft 228 kts 331°
2026-05-06 20:08 60.52692 -7.75796 24043 ft 228 kts 331°
2026-05-06 20:08 60.54208 -7.76766 22830 ft 226 kts 331°
2026-05-06 20:08 60.55699 -7.77734 22957 ft 224 kts 330°
2026-05-06 20:09 60.57164 -7.78668 23182 ft 217 kts 330°
2026-05-06 20:09 60.58604 -7.79602 24398 ft 221 kts 330°
2026-05-06 20:09 60.60117 -7.80598 24138 ft 234 kts 331°
2026-05-06 20:09 60.61697 -7.81618 24012 ft 239 kts 332°
2026-05-06 20:10 60.63278 -7.82619 24013 ft 236 kts 332°
2026-05-06 20:10 60.64839 -7.83626 24014 ft 234 kts 331°
2026-05-06 20:10 60.66389 -7.84636 24013 ft 233 kts 331°
2026-05-06 20:10 60.67931 -7.85636 24011 ft 232 kts 331°
2026-05-06 20:11 60.69469 -7.86634 24012 ft 231 kts 331°
2026-05-06 20:11 60.71001 -7.87631 24011 ft 231 kts 331°
2026-05-06 20:11 60.72533 -7.88628 24011 ft 231 kts 331°
2026-05-06 20:11 60.74061 -7.89624 24010 ft 230 kts 331°
2026-05-06 20:12 60.75587 -7.90620 24008 ft 230 kts 331°
2026-05-06 20:12 60.77093 -7.91600 24007 ft 230 kts 331°
2026-05-06 20:12 60.78639 -7.92609 24008 ft 230 kts 331°
2026-05-06 20:12 60.80142 -7.93592 24006 ft 230 kts 331°
2026-05-06 20:13 60.81683 -7.94603 24014 ft 230 kts 331°
2026-05-06 20:13 60.83187 -7.95587 24017 ft 230 kts 331°
2026-05-06 20:13 60.84709 -7.96584 24017 ft 229 kts 331°
2026-05-06 20:13 60.86233 -7.97584 24006 ft 229 kts 331°
2026-05-06 20:14 60.87751 -7.98582 24011 ft 229 kts 331°
2026-05-06 20:14 60.89269 -7.99581 24010 ft 228 kts 331°
2026-05-06 20:14 60.90783 -8.00578 24010 ft 228 kts 331°
2026-05-06 20:14 60.92295 -8.01573 24009 ft 228 kts 331°
2026-05-06 20:15 60.93808 -8.02572 24006 ft 228 kts 331°
2026-05-06 20:15 60.95319 -8.03569 24005 ft 228 kts 331°
2026-05-06 20:15 60.96828 -8.04569 24005 ft 228 kts 331°
2026-05-06 20:15 60.98343 -8.05572 24008 ft 229 kts 331°
2026-05-06 20:16 60.99852 -8.06593 24011 ft 226 kts 328°
2026-05-06 20:16 61.01187 -8.08117 24013 ft 217 kts 317°
2026-05-06 20:16 61.02470 -8.09779 24014 ft 218 kts 317°
2026-05-06 20:16 61.03764 -8.11427 24015 ft 218 kts 318°
2026-05-06 20:17 61.05060 -8.13063 24015 ft 219 kts 318°
2026-05-06 20:17 61.06341 -8.14682 24015 ft 218 kts 318°
2026-05-06 20:17 61.07636 -8.16324 24016 ft 218 kts 318°
2026-05-06 20:17 61.08935 -8.17972 24048 ft 218 kts 318°
2026-05-06 20:18 61.09793 -8.19064 24017 ft 219 kts 318°
2026-05-06 20:18 61.11093 -8.20717 24017 ft 218 kts 318°
2026-05-06 20:18 61.12385 -8.22360 24017 ft 218 kts 318°
2026-05-06 20:18 61.13678 -8.24008 24020 ft 220 kts 318°
2026-05-06 20:19 61.15398 -8.26199 24021 ft 219 kts 318°
2026-05-06 20:19 61.16272 -8.27316 24023 ft 218 kts 318°
2026-05-06 20:19 61.17564 -8.28966 24021 ft 218 kts 318°
2026-05-06 20:19 61.19272 -8.31148 24019 ft 217 kts 318°
2026-05-06 20:20 61.20140 -8.32259 24019 ft 217 kts 318°
2026-05-06 20:20 61.21409 -8.33889 24015 ft 217 kts 318°
2026-05-06 20:20 61.22697 -8.35539 24015 ft 217 kts 318°
2026-05-06 20:20 61.23982 -8.37187 24020 ft 217 kts 318°
2026-05-06 20:21 61.25268 -8.38839 24012 ft 218 kts 318°
2026-05-06 20:21 61.26559 -8.40503 24017 ft 219 kts 318°
2026-05-06 20:21 61.27857 -8.42172 24010 ft 219 kts 318°
2026-05-06 20:21 61.29153 -8.43842 24007 ft 220 kts 318°
2026-05-06 20:22 61.30453 -8.45518 24005 ft 220 kts 318°
2026-05-06 20:22 61.31754 -8.47199 24015 ft 220 kts 318°
2026-05-06 20:22 61.33055 -8.48879 24012 ft 220 kts 318°
2026-05-06 20:22 61.34361 -8.50565 24018 ft 221 kts 318°
2026-05-06 20:23 61.35666 -8.52253 24023 ft 221 kts 318°
2026-05-06 20:23 61.36970 -8.53950 24022 ft 221 kts 318°
2026-05-06 20:23 61.38273 -8.55643 24026 ft 221 kts 318°
2026-05-06 20:23 61.39581 -8.57339 24016 ft 221 kts 318°
2026-05-06 20:24 61.40886 -8.59035 24020 ft 221 kts 318°
2026-05-06 20:24 61.42191 -8.60729 24019 ft 220 kts 318°
2026-05-06 20:24 61.43488 -8.62422 24025 ft 220 kts 318°
2026-05-06 20:24 61.44788 -8.64121 24021 ft 220 kts 318°
2026-05-06 20:25 61.46074 -8.65800 24021 ft 220 kts 318°
2026-05-06 20:25 61.47373 -8.67497 24027 ft 220 kts 318°
2026-05-06 20:25 61.48679 -8.69202 24026 ft 220 kts 318°
2026-05-06 20:25 61.49979 -8.70909 24027 ft 221 kts 318°
2026-05-06 20:26 61.51283 -8.72615 24019 ft 221 kts 318°
2026-05-06 20:26 61.52589 -8.74326 24022 ft 221 kts 318°
2026-05-06 20:26 61.53893 -8.76039 24018 ft 221 kts 318°
2026-05-06 20:26 61.55195 -8.77759 24020 ft 222 kts 318°
2026-05-06 20:27 61.56505 -8.79475 24018 ft 222 kts 318°
2026-05-06 20:27 61.57811 -8.81191 24013 ft 222 kts 318°
2026-05-06 20:27 61.59116 -8.82918 24016 ft 221 kts 318°
2026-05-06 20:27 61.60423 -8.84651 24014 ft 223 kts 318°
2026-05-06 20:28 61.61721 -8.86358 24023 ft 223 kts 318°
2026-05-06 20:28 61.63032 -8.88086 24027 ft 222 kts 318°
2026-05-06 20:28 61.64344 -8.89825 24021 ft 223 kts 319°
2026-05-06 20:28 61.65655 -8.91561 24022 ft 222 kts 318°
2026-05-06 20:29 61.66958 -8.93291 24022 ft 221 kts 318°
2026-05-06 20:29 61.68258 -8.95016 24021 ft 220 kts 318°
2026-05-06 20:29 61.69551 -8.96738 24020 ft 220 kts 318°
2026-05-06 20:29 61.70846 -8.98460 24019 ft 220 kts 318°
2026-05-06 20:30 61.72138 -9.00180 24016 ft 220 kts 318°
2026-05-06 20:30 61.74729 -9.03636 24016 ft 220 kts 318°
2026-05-06 20:30 61.76020 -9.05362 24027 ft 220 kts 318°
2026-05-06 20:31 61.77310 -9.07088 24027 ft 220 kts 318°
2026-05-06 20:31 61.78601 -9.08817 24027 ft 220 kts 318°
2026-05-06 20:31 61.79893 -9.10547 24027 ft 220 kts 318°
2026-05-06 20:31 61.81184 -9.12280 24027 ft 220 kts 318°
2026-05-06 20:32 61.82473 -9.14010 24027 ft 219 kts 318°
2026-05-06 20:32 61.83763 -9.15744 24026 ft 219 kts 318°
2026-05-06 20:32 61.85036 -9.17457 24026 ft 219 kts 318°
2026-05-06 20:32 61.86324 -9.19191 24026 ft 220 kts 318°
2026-05-06 20:33 61.87613 -9.20929 24029 ft 220 kts 318°
2026-05-06 20:33 61.88900 -9.22666 24029 ft 220 kts 318°
2026-05-06 20:33 61.90189 -9.24407 24029 ft 219 kts 318°
2026-05-06 20:33 61.91478 -9.26149 24049 ft 219 kts 318°
2026-05-06 20:34 61.92769 -9.27899 24032 ft 220 kts 318°
2026-05-06 20:34 61.94065 -9.29656 24034 ft 220 kts 318°
2026-05-06 20:34 61.95360 -9.31410 24034 ft 221 kts 318°
2026-05-06 20:34 61.96654 -9.33168 24034 ft 221 kts 318°
2026-05-06 20:35 61.97948 -9.34925 24040 ft 220 kts 318°
2026-05-06 20:35 61.99241 -9.36684 24040 ft 221 kts 318°
2026-05-06 20:35 62.00534 -9.38445 24035 ft 220 kts 318°
2026-05-06 20:35 62.01828 -9.40217 24033 ft 221 kts 318°
2026-05-06 20:36 62.03113 -9.41968 24035 ft 222 kts 318°
2026-05-06 20:36 62.04415 -9.43746 24035 ft 223 kts 318°
2026-05-06 20:36 62.05729 -9.45537 24037 ft 224 kts 318°
2026-05-06 20:36 62.07042 -9.47337 24037 ft 224 kts 318°
2026-05-06 20:37 62.08344 -9.49127 24045 ft 223 kts 318°
2026-05-06 20:37 62.09652 -9.50909 24045 ft 224 kts 318°
2026-05-06 20:37 62.10965 -9.52707 24046 ft 223 kts 318°
2026-05-06 20:37 62.12268 -9.54515 24045 ft 223 kts 318°
2026-05-06 20:38 62.13574 -9.56308 24046 ft 224 kts 318°
2026-05-06 20:38 62.14888 -9.58119 24047 ft 225 kts 318°
2026-05-06 20:38 62.16188 -9.59917 24040 ft 225 kts 318°
2026-05-06 20:38 62.17498 -9.61714 24038 ft 223 kts 318°
2026-05-06 20:39 62.18804 -9.63522 24040 ft 224 kts 318°
2026-05-06 20:39 62.20117 -9.65340 24052 ft 225 kts 319°
2026-05-06 20:39 62.21427 -9.67152 24053 ft 224 kts 318°
2026-05-06 20:39 62.22737 -9.68968 24054 ft 224 kts 318°
2026-05-06 20:40 62.24052 -9.70792 24054 ft 224 kts 318°
2026-05-06 20:40 62.25360 -9.72609 24054 ft 224 kts 318°
2026-05-06 20:40 62.26672 -9.74432 24051 ft 225 kts 318°
2026-05-06 20:40 62.27979 -9.76256 24050 ft 224 kts 318°
2026-05-06 20:41 62.29286 -9.78076 24050 ft 224 kts 318°
2026-05-06 20:41 62.30593 -9.79898 24059 ft 224 kts 318°
2026-05-06 20:41 62.31904 -9.81727 24059 ft 224 kts 318°
2026-05-06 20:41 62.33211 -9.83557 24059 ft 224 kts 318°
2026-05-06 20:42 62.34519 -9.85386 24059 ft 224 kts 318°
2026-05-06 20:42 62.35828 -9.87219 24059 ft 224 kts 318°
2026-05-06 20:42 62.37120 -9.89032 24060 ft 225 kts 318°
2026-05-06 20:42 62.38428 -9.90868 24060 ft 225 kts 318°
2026-05-06 20:43 62.39740 -9.92711 24060 ft 225 kts 318°
2026-05-06 20:43 62.41051 -9.94553 24060 ft 225 kts 318°
2026-05-06 20:43 62.42357 -9.96393 24071 ft 225 kts 318°
2026-05-06 20:43 62.43667 -9.98240 24071 ft 224 kts 318°
2026-05-06 20:44 62.44976 -10.00087 24071 ft 225 kts 318°
2026-05-06 20:44 62.46286 -10.01938 24069 ft 225 kts 318°
2026-05-06 20:44 62.47596 -10.03790 24067 ft 225 kts 319°
2026-05-06 20:44 62.48902 -10.05638 24068 ft 224 kts 320°
2026-05-06 20:45 62.50203 -10.07485 24069 ft 224 kts 319°
2026-05-06 20:45 62.51487 -10.09306 24068 ft 224 kts 319°
2026-05-06 20:45 62.52787 -10.11152 24079 ft 223 kts 319°
2026-05-06 20:45 62.54088 -10.13003 24079 ft 223 kts 320°
2026-05-06 20:46 62.55387 -10.14850 24079 ft 223 kts 319°
2026-05-06 20:46 62.56687 -10.16701 24079 ft 223 kts 319°
2026-05-06 20:46 62.57982 -10.18550 24078 ft 223 kts 319°
2026-05-06 20:46 62.59277 -10.20399 24079 ft 223 kts 319°
2026-05-06 20:47 62.60575 -10.22254 24081 ft 223 kts 319°
2026-05-06 20:47 62.61869 -10.24105 24081 ft 223 kts 319°
2026-05-06 20:47 62.63166 -10.25963 24081 ft 223 kts 319°
2026-05-06 20:47 62.64460 -10.27820 24092 ft 223 kts 319°
2026-05-06 20:48 62.65755 -10.29679 24087 ft 223 kts 319°
2026-05-06 20:48 62.67051 -10.31540 24087 ft 223 kts 319°
2026-05-06 20:48 62.68347 -10.33403 24087 ft 223 kts 319°
2026-05-06 20:48 62.69641 -10.35267 24087 ft 223 kts 319°
2026-05-06 20:49 62.70932 -10.37131 24087 ft 222 kts 319°
2026-05-06 20:49 62.72222 -10.38999 24086 ft 222 kts 319°
2026-05-06 20:49 62.73517 -10.40868 24088 ft 224 kts 319°
2026-05-06 20:49 62.74818 -10.42735 24102 ft 224 kts 320°
2026-05-06 20:50 62.76119 -10.44617 24089 ft 224 kts 319°
2026-05-06 20:50 62.77415 -10.46506 24086 ft 224 kts 320°
2026-05-06 20:50 62.78718 -10.48397 24085 ft 225 kts 321°
2026-05-06 20:50 62.80020 -10.50283 24086 ft 225 kts 320°
2026-05-06 20:51 62.81324 -10.52179 24087 ft 225 kts 319°
2026-05-06 20:51 62.82610 -10.54051 24089 ft 225 kts 319°
2026-05-06 20:51 62.83909 -10.55957 24087 ft 225 kts 320°
2026-05-06 20:51 62.85212 -10.57852 24088 ft 225 kts 320°
2026-05-06 20:52 62.86515 -10.59750 24097 ft 225 kts 321°
2026-05-06 20:52 62.87824 -10.61658 24098 ft 226 kts 320°
2026-05-06 20:52 62.89127 -10.63566 24099 ft 225 kts 319°
2026-05-06 20:52 62.90426 -10.65485 24100 ft 225 kts 319°
2026-05-06 20:53 62.91730 -10.67389 24100 ft 225 kts 319°
2026-05-06 20:53 62.93030 -10.69300 24100 ft 225 kts 320°
2026-05-06 20:53 62.94333 -10.71207 24100 ft 225 kts 319°
2026-05-06 20:53 62.95634 -10.73128 24099 ft 226 kts 320°
2026-05-06 20:54 62.96941 -10.75041 24109 ft 226 kts 319°
2026-05-06 20:54 62.98243 -10.76970 24109 ft 225 kts 320°
2026-05-06 20:54 62.99545 -10.78897 24111 ft 225 kts 319°
2026-05-06 20:54 63.00847 -10.80814 24111 ft 225 kts 319°
2026-05-06 20:55 63.02146 -10.82735 24123 ft 225 kts 320°
2026-05-06 20:55 63.03445 -10.84666 24109 ft 225 kts 322°
2026-05-06 20:55 63.04743 -10.86587 24110 ft 225 kts 322°
2026-05-06 20:55 63.06046 -10.88502 24113 ft 224 kts 321°
2026-05-06 20:56 63.07338 -10.90443 24114 ft 224 kts 321°
2026-05-06 20:56 63.08634 -10.92360 24122 ft 223 kts 320°
2026-05-06 20:56 63.09901 -10.94257 24120 ft 223 kts 322°
2026-05-06 20:56 63.11190 -10.96177 24119 ft 223 kts 322°
2026-05-06 20:57 63.12484 -10.98096 24116 ft 224 kts 322°
2026-05-06 20:57 63.13772 -11.00029 24117 ft 224 kts 321°
2026-05-06 20:57 63.15070 -11.01950 24119 ft 223 kts 320°
2026-05-06 20:57 63.16352 -11.03891 24122 ft 223 kts 320°
2026-05-06 20:58 63.17638 -11.05817 24122 ft 223 kts 321°
2026-05-06 20:58 63.18922 -11.07744 24133 ft 223 kts 322°
2026-05-06 20:58 63.20210 -11.09663 24135 ft 223 kts 321°
2026-05-06 20:58 63.21487 -11.11615 24133 ft 224 kts 322°
2026-05-06 20:59 63.22779 -11.13546 24135 ft 224 kts 320°
2026-05-06 20:59 63.24071 -11.15487 24133 ft 224 kts 321°
2026-05-06 20:59 63.25345 -11.17406 24135 ft 223 kts 320°
2026-05-06 20:59 63.26626 -11.19354 24134 ft 223 kts 321°
2026-05-06 21:00 63.27906 -11.21303 24135 ft 223 kts 321°
2026-05-06 21:00 63.29192 -11.23230 24134 ft 224 kts 322°
2026-05-06 21:00 63.30482 -11.25184 24141 ft 224 kts 323°
2026-05-06 21:00 63.31770 -11.27130 24148 ft 223 kts 323°
2026-05-06 21:01 63.33050 -11.29076 24144 ft 222 kts 322°
2026-05-06 21:01 63.34328 -11.31023 24142 ft 222 kts 322°
2026-05-06 21:01 63.35595 -11.32962 24141 ft 221 kts 322°
2026-05-06 21:01 63.36862 -11.34901 24140 ft 221 kts 322°
2026-05-06 21:02 63.38135 -11.36830 24137 ft 221 kts 323°
2026-05-06 21:02 63.38977 -11.38118 24132 ft 222 kts 323°
2026-05-06 21:02 63.40669 -11.40687 24139 ft 222 kts 323°
2026-05-06 21:02 63.41939 -11.42639 24148 ft 221 kts 322°
2026-05-06 21:03 63.43206 -11.44586 24150 ft 221 kts 322°
2026-05-06 21:03 63.44470 -11.46532 24148 ft 221 kts 323°
2026-05-06 21:03 63.45738 -11.48472 24147 ft 220 kts 323°
2026-05-06 21:03 63.47005 -11.50423 24146 ft 221 kts 323°
2026-05-06 21:04 63.48274 -11.52378 24144 ft 222 kts 323°
2026-05-06 21:04 63.49549 -11.54324 24146 ft 221 kts 322°
2026-05-06 21:04 63.50387 -11.55631 24145 ft 221 kts 322°
2026-05-06 21:04 63.51651 -11.57586 24152 ft 220 kts 322°
2026-05-06 21:05 63.52918 -11.59509 24139 ft 220 kts 324°
2026-05-06 21:05 63.54179 -11.61476 24141 ft 221 kts 324°
2026-05-06 21:05 63.55857 -11.64092 24141 ft 222 kts 324°
2026-05-06 21:05 63.56719 -11.65426 24141 ft 223 kts 324°
2026-05-06 21:06 63.57993 -11.67396 24158 ft 221 kts 326°
2026-05-06 21:06 63.59245 -11.69333 24162 ft 221 kts 326°
2026-05-06 21:06 63.60504 -11.71301 24156 ft 220 kts 326°
2026-05-06 21:06 63.61758 -11.73256 24157 ft 219 kts 326°
2026-05-06 21:07 63.63014 -11.75210 24152 ft 219 kts 325°
2026-05-06 21:07 63.64270 -11.77172 24156 ft 220 kts 326°
2026-05-06 21:07 63.65533 -11.79142 24160 ft 221 kts 326°
2026-05-06 21:07 63.66794 -11.81113 24161 ft 220 kts 325°
2026-05-06 21:08 63.68055 -11.83089 24161 ft 220 kts 326°
2026-05-06 21:08 63.69312 -11.85061 24163 ft 219 kts 326°
2026-05-06 21:08 63.70550 -11.87004 24159 ft 219 kts 326°
2026-05-06 21:08 63.71802 -11.88971 24164 ft 219 kts 326°
2026-05-06 21:09 63.73055 -11.90940 24158 ft 220 kts 325°
2026-05-06 21:09 63.74313 -11.92917 24168 ft 221 kts 326°
2026-05-06 21:09 63.75570 -11.94898 24170 ft 220 kts 325°
2026-05-06 21:09 63.76824 -11.96878 24169 ft 219 kts 326°
2026-05-06 21:10 63.78074 -11.98853 24176 ft 218 kts 325°
2026-05-06 21:10 63.79320 -12.00825 24174 ft 219 kts 325°
2026-05-06 21:10 63.80570 -12.02797 24171 ft 219 kts 325°
2026-05-06 21:10 63.81821 -12.04782 24169 ft 220 kts 325°
2026-05-06 21:11 63.83074 -12.06772 24166 ft 220 kts 325°
2026-05-06 21:11 63.84325 -12.08761 24170 ft 220 kts 325°
2026-05-06 21:11 63.85577 -12.10748 24187 ft 219 kts 327°
2026-05-06 21:11 63.86820 -12.12722 24184 ft 217 kts 326°
2026-05-06 21:12 63.88053 -12.14696 24184 ft 217 kts 326°
2026-05-06 21:12 63.89291 -12.16668 24185 ft 217 kts 326°
2026-05-06 21:12 63.90528 -12.18642 24178 ft 218 kts 326°
2026-05-06 21:12 63.91771 -12.20628 24178 ft 218 kts 326°
2026-05-06 21:13 63.93009 -12.22612 24182 ft 218 kts 326°
2026-05-06 21:13 63.94245 -12.24595 24182 ft 217 kts 326°
2026-05-06 21:13 63.95481 -12.26572 24185 ft 216 kts 327°
2026-05-06 21:13 63.96711 -12.28543 24185 ft 217 kts 326°
2026-05-06 21:14 63.97941 -12.30527 24191 ft 216 kts 326°
2026-05-06 21:14 63.99158 -12.32484 24188 ft 218 kts 326°
2026-05-06 21:14 64.00399 -12.34482 24190 ft 218 kts 326°
2026-05-06 21:14 64.01634 -12.36471 24189 ft 217 kts 326°
2026-05-06 21:15 64.02868 -12.38464 24199 ft 216 kts 326°
2026-05-06 21:15 64.04094 -12.40450 24193 ft 216 kts 326°
2026-05-06 21:15 64.05320 -12.42434 24195 ft 216 kts 325°
2026-05-06 21:15 64.06547 -12.44422 24194 ft 216 kts 326°
2026-05-06 21:16 64.07777 -12.46415 24200 ft 217 kts 326°
2026-05-06 21:16 64.09011 -12.48418 24144 ft 220 kts 326°
2026-05-06 21:16 64.10286 -12.50486 23902 ft 229 kts 325°
2026-05-06 21:16 64.11603 -12.52632 23677 ft 235 kts 326°
2026-05-06 21:17 64.12951 -12.54827 23399 ft 240 kts 326°
2026-05-06 21:17 64.14337 -12.57078 23118 ft 246 kts 326°
2026-05-06 21:17 64.15740 -12.59380 22841 ft 251 kts 326°
2026-05-06 21:17 64.17147 -12.61680 22565 ft 249 kts 326°
2026-05-06 21:18 64.18540 -12.63968 22282 ft 243 kts 326°
2026-05-06 21:18 64.19890 -12.66177 22008 ft 234 kts 326°
2026-05-06 21:18 64.21191 -12.68318 21720 ft 227 kts 326°
2026-05-06 21:18 64.22466 -12.70404 21437 ft 224 kts 326°
2026-05-06 21:19 64.23747 -12.72514 21166 ft 228 kts 326°
2026-05-06 21:19 64.25058 -12.74662 20902 ft 232 kts 326°
2026-05-06 21:19 64.26383 -12.76849 20633 ft 236 kts 326°
2026-05-06 21:19 64.27716 -12.79060 20374 ft 235 kts 326°
2026-05-06 21:20 64.29053 -12.81235 20107 ft 235 kts 327°
2026-05-06 21:20 64.30352 -12.83414 19853 ft 234 kts 327°
2026-05-06 21:20 64.31671 -12.85600 19592 ft 233 kts 327°
2026-05-06 21:20 64.32985 -12.87784 19341 ft 232 kts 327°
2026-05-06 21:21 64.34299 -12.89951 19089 ft 232 kts 327°
2026-05-06 21:21 64.35611 -12.92147 18835 ft 232 kts 326°
2026-05-06 21:21 64.36917 -12.94335 18586 ft 231 kts 327°
2026-05-06 21:21 64.38225 -12.96498 18326 ft 230 kts 328°
2026-05-06 21:22 64.39511 -12.98651 18184 ft 226 kts 328°
2026-05-06 21:22 64.40783 -13.00761 18041 ft 223 kts 327°
2026-05-06 21:22 64.42032 -13.02858 17896 ft 220 kts 327°
2026-05-06 21:22 64.43271 -13.04936 17748 ft 220 kts 326°
2026-05-06 21:23 64.44487 -13.06983 17608 ft 218 kts 327°
2026-05-06 21:23 64.45709 -13.09032 17467 ft 216 kts 328°
2026-05-06 21:23 64.46931 -13.11068 17328 ft 217 kts 327°
2026-05-06 21:23 64.48141 -13.13116 17190 ft 214 kts 328°
2026-05-06 21:24 64.49343 -13.15133 17045 ft 213 kts 327°
2026-05-06 21:24 64.50537 -13.17159 16907 ft 212 kts 327°
2026-05-06 21:24 64.51734 -13.19173 16765 ft 213 kts 326°
2026-05-06 21:24 64.52933 -13.21197 16640 ft 213 kts 326°
2026-05-06 21:25 64.54126 -13.23215 16502 ft 212 kts 326°
2026-05-06 21:25 64.55311 -13.25236 16372 ft 210 kts 327°
2026-05-06 21:25 64.56490 -13.27227 16237 ft 209 kts 327°
2026-05-06 21:25 64.57681 -13.29235 15988 ft 214 kts 327°
2026-05-06 21:26 64.58886 -13.31305 15731 ft 217 kts 326°
2026-05-06 21:26 64.59977 -13.33768 15466 ft 222 kts 311°
2026-05-06 21:26 64.60893 -13.36681 15210 ft 224 kts 309°
2026-05-06 21:26 64.61813 -13.39556 14958 ft 224 kts 311°
2026-05-06 21:27 64.62769 -13.42420 14714 ft 223 kts 313°
2026-05-06 21:27 64.63744 -13.45283 14457 ft 223 kts 311°
2026-05-06 21:27 64.64674 -13.48121 14210 ft 223 kts 310°
2026-05-06 21:27 64.65618 -13.50991 13953 ft 222 kts 312°
2026-05-06 21:28 64.66565 -13.53827 13673 ft 221 kts 313°
2026-05-06 21:28 64.67505 -13.56651 13391 ft 220 kts 312°
2026-05-06 21:28 64.68442 -13.59461 13114 ft 218 kts 311°
2026-05-06 21:28 64.69363 -13.62286 12836 ft 218 kts 310°
2026-05-06 21:29 64.70275 -13.65090 12560 ft 215 kts 312°
2026-05-06 21:29 64.71191 -13.67844 12287 ft 214 kts 311°
2026-05-06 21:29 64.72109 -13.70592 12015 ft 214 kts 310°
2026-05-06 21:29 64.73008 -13.73357 11752 ft 212 kts 311°
2026-05-06 21:30 64.73903 -13.76091 11490 ft 210 kts 311°
2026-05-06 21:30 64.74788 -13.78816 11228 ft 209 kts 312°
2026-05-06 21:30 64.75674 -13.81488 10968 ft 207 kts 313°
2026-05-06 21:30 64.76554 -13.84157 10709 ft 207 kts 311°
2026-05-06 21:31 64.77393 -13.86829 10457 ft 205 kts 313°
2026-05-06 21:31 64.78281 -13.89448 10202 ft 205 kts 313°
2026-05-06 21:31 64.79134 -13.92082 9931 ft 199 kts 313°
2026-05-06 21:31 64.79953 -13.94649 9628 ft 195 kts 310°
2026-05-06 21:32 64.80768 -13.97163 9336 ft 193 kts 311°
2026-05-06 21:32 64.82399 -14.02136 8776 ft 190 kts 312°
2026-05-06 21:32 64.83199 -14.04609 8507 ft 189 kts 311°
2026-05-06 21:33 64.83994 -14.07068 8235 ft 189 kts 311°
2026-05-06 21:33 64.84793 -14.09534 7962 ft 189 kts 312°
2026-05-06 21:33 64.85582 -14.11984 7693 ft 188 kts 312°
2026-05-06 21:33 64.86366 -14.14415 7448 ft 186 kts 312°
2026-05-06 21:34 64.87141 -14.16824 7315 ft 183 kts 312°
2026-05-06 21:34 64.87898 -14.19169 7186 ft 182 kts 312°
2026-05-06 21:34 64.88674 -14.21578 7055 ft 186 kts 312°
2026-05-06 21:34 64.89463 -14.24034 6931 ft 190 kts 311°
2026-05-06 21:35 64.90263 -14.26525 6814 ft 191 kts 311°
2026-05-06 21:35 64.91071 -14.29050 6706 ft 194 kts 311°
2026-05-06 21:35 64.91878 -14.31564 6576 ft 191 kts 311°
2026-05-06 21:35 64.92670 -14.34058 6431 ft 190 kts 311°
2026-05-06 21:36 64.93468 -14.36491 6286 ft 185 kts 312°
2026-05-06 21:36 64.94252 -14.38862 6145 ft 182 kts 312°
2026-05-06 21:36 64.95015 -14.41183 5997 ft 173 kts 312°
2026-05-06 21:36 64.95726 -14.43381 5981 ft 165 kts 312°
2026-05-06 21:37 64.96409 -14.45513 5975 ft 163 kts 312°
2026-05-06 21:37 64.97104 -14.47676 5974 ft 168 kts 312°
2026-05-06 21:37 64.97807 -14.49891 5980 ft 170 kts 311°
2026-05-06 21:37 64.98523 -14.52132 5986 ft 172 kts 312°
2026-05-06 21:38 64.99245 -14.54347 5998 ft 173 kts 312°
2026-05-06 21:38 64.99987 -14.56598 5994 ft 173 kts 313°
2026-05-06 21:38 65.00717 -14.58861 6000 ft 173 kts 312°
2026-05-06 21:38 65.01445 -14.61131 5876 ft 172 kts 312°
2026-05-06 21:39 65.02166 -14.63390 5735 ft 171 kts 312°
2026-05-06 21:39 65.02876 -14.65592 5650 ft 167 kts 316°
2026-05-06 21:39 65.03855 -14.66673 5512 ft 154 kts
2026-05-06 21:39 65.04870 -14.66096 5323 ft 150 kts 20°
2026-05-06 21:40 65.05835 -14.65194 5117 ft 148 kts 21°
2026-05-06 21:40 65.06766 -14.64217 4905 ft 145 kts 23°
2026-05-06 21:40 65.07671 -14.63249 4695 ft 140 kts 23°
2026-05-06 21:40 65.08539 -14.62288 4488 ft 136 kts 24°
2026-05-06 21:41 65.09384 -14.61341 4290 ft 133 kts 24°
2026-05-06 21:41 65.10216 -14.60419 4099 ft 130 kts 23°
2026-05-06 21:41 65.11041 -14.59504 3915 ft 132 kts 24°
2026-05-06 21:41 65.11865 -14.58580 3731 ft 133 kts 23°
2026-05-06 21:42 65.12706 -14.57649 3541 ft 134 kts 23°
2026-05-06 21:42 65.13557 -14.56693 3348 ft 135 kts 23°
2026-05-06 21:42 65.14399 -14.55772 3151 ft 132 kts 24°